Hourly Weather Roundup
Issued by NWS Central Illinois

Home | Current Version | Previous Version | Text Only | Print | Product List | Glossary On
Versions: 1 2 3 4 5 6 7 8 9 10 11 12 13 14 15 16 17 18 19 20 21 22 23 24 25 26 27 28 29 30 31 32 33 34 35 36 37 38 39 40 41 42 43 44 45 46 47 48 49 50
000
NZUS43 KILX 161010
HWRILX

AREA WEATHER ROUNDUP
NATIONAL WEATHER SERVICE, LINCOLN IL
500 AM CDT TUE SEP 16 2014


CITY           SKY/WX    TMP DP  RH WIND       PRES   REMARKS
BLOOMINGTON    CLEAR     46  44  93 N7        30.22R
CHAMPAIGN      CLOUDY    55  53  93 N6        30.19S
DECATUR        CLOUDY    54  52  93 N7        30.21R
FLORA          CLEAR     57  54  92 N8        30.19R
GALESBURG      FOG       39  39  99 CALM      30.23S VSB 1/4
JACKSONVILLE   CLOUDY    54  52  94 N5        30.23S
LACON          MOCLDY    42  42  97 CALM      30.22R FOG
LAWRENCEVILLE  CLOUDY    58  56  93 N8        30.17R
LITCHFIELD     CLOUDY    54  52  91 NE6       30.21R
$$


CITY           SKY/WX    TMP DP  RH WIND       PRES   REMARKS
LINCOLN        PTCLDY    50  49  95 CALM      30.21R
MACOMB         FOG       41  41 100 CALM      30.25S VSB 1/2
MATTOON        CLOUDY    54  52  93 N6        30.19R
MT CARMEL AP   CLOUDY    61  55  82 N7        30.16R
OLNEY-NOBLE AP CLOUDY    55  54  94 N8        30.18S
PARIS          CLOUDY    55  54  97 CALM      30.19R FOG
PEORIA         CLEAR     49  46  90 N6        30.22S
PONTIAC        FOG       46  46 100 CALM      30.21R VSB 1/2
RANTOUL        PTCLDY    54  50  87 N9        30.20R FOG
ROBINSON       CLOUDY    58  57  94 N6        30.18R
SPRINGFIELD    MOCLDY    53  50  89 N7        30.22S
TAYLORVILLE    CLOUDY    50  50 100 CALM      30.21R FOG
$$

...REGIONAL REPORTS...


CITY           SKY/WX    TMP DP  RH WIND       PRES   REMARKS
CHICAGO O`HARE CLEAR     47  44  90 W3        30.19S
KANKAKEE       CLEAR     48  47  96 NW3       30.20R
MOLINE         CLEAR     43  41  93 CALM      30.23S
MOUNT VERNON   CLOUDY    57  52  82 N3        30.19R
PITTSFIELD     CLOUDY    54  50  86 N6        30.24R
QUINCY         CLEAR     48  46  93 N3        30.23S
ROCKFORD       CLEAR     42  40  92 N5        30.23S
$$


CITY           SKY/WX    TMP DP  RH WIND       PRES   REMARKS
BURLINGTON     CLEAR     44  43  96 N3        30.23S
CEDAR RAPIDS   CLEAR     41  41 100 NW8       30.23S
DES MOINES     CLEAR     47  43  86 CALM      30.26S
KIRKSVILLE     CLEAR     46  45  96 N3        30.25S FOG
OTTUMWA        FOG       41  40  96 W3        30.25R VSB 1/2
ST LOUIS       CLOUDY    59  55  87 NE8       30.21R
$$


CITY           SKY/WX    TMP DP  RH WIND       PRES   REMARKS
TERRE HAUTE    CLOUDY    55  53  93 N10       30.17R
EVANSVILLE     CLOUDY    60  56  86 NW10      30.14S
INDIANAPOLIS   MOCLDY    54  51  90 N7        30.14R
LAFAYETTE      PTCLDY    51  51 100 NW3       30.16R FOG
MADISON        CLEAR     39  37  92 CALM      30.22R
MILWAUKEE      CLEAR     46  42  86 NW7       30.19S
$$




USA.gov is the U.S. government's official web portal to all federal, state and local government web resources and services.